Houghton Lake, MI

12:26 AM EDT on June 29, 2017 (GMT -0400)
Roscommon County

Weather History for KHTL - November, 2012

Change the Weather History Date:

Friday, November 30, 2012

  Actual Average Record
Temperature  
Mean Temperature 30 °F 29 °F  
Max Temperature 32 °F 36 °F 61 °F (1998)
Min Temperature 27 °F 23 °F -2 °F (1936)
Degree Days  
Heating Degree Days 35 36  
Month to date heating degree days 874 905  
Since 1 July heating degree days 1715 1883  
Moisture  
Dew Point 28 °F    
Average Humidity 93    
Maximum Humidity 100    
Minimum Humidity 85    
Precipitation  
Precipitation T in 0.07 in 0.66 in (1934)
Month to date precipitation 0.68 2.32  
Year to date precipitation 30.41 27.10  
Snow  
Snow T in 0.40 in 4.20 in (1940)
Month to date snowfall 5.9 8.5  
Since 1 July snowfall 5.9 9.1  
Snow Depth 1.00 in    
Sea Level Pressure  
Sea Level Pressure 30.28 in    
Wind  
Wind Speed 12 mph (East)    
Max Wind Speed 21 mph    
Max Gust Speed 25 mph    
Visibility 6 miles    
Events      
T = Trace of Precipitation, MM = Missing Value Source: NWS Daily Summary

Daily Weather History Graph

Daily Weather History Graph

Search for Another Location

Airport or City:

Trip Planner

Search our weather history database for the weather conditions in past years. The results will help you decide how hot, cold, wet, or windy it might be!

Date:

Astronomy

Nov. 30, 2012 Rise Set
Actual Time 7:53 AM EST 5:00 PM EST
Civil Twilight 7:21 AM EST 5:33 PM EST
Nautical Twilight 6:45 AM EST 6:09 PM EST
Astronomical Twilight 6:10 AM EST 6:44 PM EST
Moon 6:55 PM EST (11/30) 9:25 AM EST (11/30)
Length of Visible Light 10h 12m
Length of Day
9h 06m
Waning Gibbous, 96% of the Moon is Illuminated
Nov 30
Waning Gibbous
Dec 6
Last Quarter
Dec 13
New
Dec 20
First Quarter
Dec 28
Full

Hourly Weather History & Observations

Time (EST) Temp. Windchill Dew Point Humidity Pressure Visibility Wind Dir Wind Speed Gust Speed Precip Events Conditions
12:38 AM 30.2 °F 20.2 °F 26.6 °F 86% 30.23 in 10.0 mi East 12.7 mph - N/A   Overcast
12:53 AM 30.0 °F 20.5 °F 26.1 °F 85% 30.27 in 10.0 mi East 11.5 mph - N/A   Overcast
1:53 AM 28.9 °F 18.2 °F 26.1 °F 89% 30.28 in 10.0 mi East 13.8 mph 21.9 mph N/A   Overcast
2:53 AM 28.0 °F 17.5 °F 26.1 °F 92% 30.29 in 10.0 mi East 12.7 mph 21.9 mph N/A   Overcast
3:53 AM 28.0 °F 18.1 °F 26.1 °F 92% 30.28 in 10.0 mi East 11.5 mph 20.7 mph N/A   Overcast
4:53 AM 28.0 °F 16.1 °F 26.1 °F 92% 30.27 in 10.0 mi East 16.1 mph 21.9 mph N/A   Overcast
5:53 AM 28.0 °F 16.1 °F 25.0 °F 88% 30.28 in 10.0 mi ENE 16.1 mph 21.9 mph N/A   Overcast
6:53 AM 28.0 °F 15.7 °F 25.0 °F 88% 30.29 in 10.0 mi East 17.3 mph 23.0 mph N/A   Overcast
7:53 AM 27.0 °F 14.7 °F 24.1 °F 89% 30.30 in 10.0 mi East 16.1 mph - N/A   Overcast
8:05 AM 28.4 °F 17.0 °F 24.8 °F 86% 30.25 in 10.0 mi East 15.0 mph - N/A   Overcast
8:53 AM 28.0 °F 17.5 °F 24.1 °F 85% 30.30 in 10.0 mi East 12.7 mph - N/A   Overcast
9:53 AM 28.0 °F 18.6 °F 25.0 °F 88% 30.31 in 10.0 mi East 10.4 mph 17.3 mph N/A   Overcast
10:53 AM 28.9 °F 19.2 °F 25.0 °F 85% 30.32 in 10.0 mi ENE 11.5 mph - N/A   Overcast
11:36 AM 28.4 °F 18.0 °F 26.6 °F 93% 30.25 in 10.0 mi ENE 12.7 mph - N/A   Overcast
11:53 AM 28.9 °F 19.2 °F 26.1 °F 89% 30.30 in 10.0 mi ENE 11.5 mph - N/A   Overcast
12:53 PM 30.0 °F 18.7 °F 27.0 °F 88% 30.28 in 10.0 mi ENE 16.1 mph - N/A   Overcast
1:53 PM 30.0 °F 20.0 °F 27.0 °F 88% 30.27 in 9.0 mi ENE 12.7 mph - N/A   Overcast
2:53 PM 30.0 °F 20.5 °F 28.0 °F 92% 30.27 in 6.0 mi ENE 11.5 mph - N/A   Overcast
3:53 PM 30.9 °F 22.2 °F 28.9 °F 92% 30.28 in 5.0 mi ENE 10.4 mph - N/A   Overcast
4:53 PM 30.9 °F 21.7 °F 30.0 °F 96% 30.28 in 3.0 mi ENE 11.5 mph - N/A   Overcast
5:45 PM 30.2 °F 20.8 °F 30.2 °F 100% 30.24 in 2.5 mi East 11.5 mph - N/A   Overcast
5:53 PM 30.9 °F 22.2 °F 30.0 °F 96% 30.29 in 2.5 mi East 10.4 mph - N/A   Overcast
6:25 PM 30.2 °F 21.3 °F 30.2 °F 100% 30.25 in 1.8 mi East 10.4 mph - N/A   Overcast
6:41 PM 30.2 °F 21.3 °F 30.2 °F 100% 30.25 in 1.5 mi East 10.4 mph - N/A   Overcast
6:53 PM 30.9 °F 22.2 °F 30.0 °F 96% 30.31 in 1.5 mi East 10.4 mph - N/A   Overcast
7:35 PM 30.2 °F 20.8 °F 30.2 °F 100% 30.28 in 1.8 mi ENE 11.5 mph - N/A   Overcast
7:53 PM 30.9 °F 22.2 °F 30.0 °F 96% 30.32 in 1.8 mi ENE 10.4 mph - N/A   Overcast
8:22 PM 30.2 °F 21.3 °F 30.2 °F 100% 30.27 in 2.0 mi East 10.4 mph - N/A   Overcast
8:31 PM 30.2 °F 21.3 °F 30.2 °F 100% 30.27 in 1.8 mi East 10.4 mph - N/A   Overcast
8:53 PM 30.9 °F 22.8 °F 30.0 °F 96% 30.31 in 1.8 mi East 9.2 mph - N/A   Overcast
9:10 PM 30.2 °F 21.9 °F 30.2 °F 100% 30.25 in 1.5 mi East 9.2 mph - N/A   Overcast
9:46 PM 30.2 °F 23.4 °F 30.2 °F 100% 30.25 in 1.8 mi East 6.9 mph - N/A   Overcast
9:53 PM 30.9 °F 24.3 °F 30.9 °F 100% 30.30 in 1.8 mi East 6.9 mph - N/A   Overcast
10:03 PM 30.2 °F 22.6 °F 30.2 °F 100% 30.25 in 1.5 mi East 8.1 mph - N/A   Overcast
10:19 PM 30.2 °F 23.4 °F 30.2 °F 100% 30.26 in 1.8 mi East 6.9 mph - N/A   Overcast
10:32 PM 30.2 °F 23.4 °F 30.2 °F 100% 30.26 in 1.5 mi East 6.9 mph - N/A   Overcast
10:53 PM 30.9 °F 23.5 °F 30.9 °F 100% 30.30 in 1.5 mi East 8.1 mph - N/A   Overcast
11:19 PM 30.2 °F 21.9 °F 30.2 °F 100% 30.24 in 1.8 mi ESE 9.2 mph - N/A   Overcast
11:53 PM 32.0 °F 24.8 °F 30.9 °F 96% 30.27 in 1.5 mi East 8.1 mph - N/A   Overcast